• In Lithuania
  • List of Countries
  • For 7 days
  • Water Temperature
  • Satellite Maps
  • Weather Map
  • Weather Widgets
  • user-avatar
    Login

    Hourly Weather Verhneyanchenkov

    Today, 22 April, Sunday

    Time Temperature Precipitation Wind Pressure Humidity
    00:00 +10°C° 0 mm 7 mps 755 mmHg 58%
    01:00 +10°C° 0 mm 7 mps 754 mmHg 58%
    02:00 +10°C° 0 mm 8 mps 754 mmHg 57%
    03:00 +10°C° 0 mm 9 mps 753 mmHg 57%
    04:00 +10°C° 0.1 mm 9 mps 753 mmHg 60%
    05:00 +10°C° 0.1 mm 9 mps 752 mmHg 63%
    06:00 +10°C° 0.1 mm 9 mps 752 mmHg 66%
    07:00 +10°C° 0.3 mm 9 mps 752 mmHg 68%
    08:00 +11°C° 0.3 mm 9 mps 752 mmHg 71%
    09:00 +11°C° 0.3 mm 9 mps 752 mmHg 73%
    10:00 +13°C° 0 mm 8 mps 752 mmHg 69%
    11:00 +15°C° 0 mm 8 mps 752 mmHg 64%
    12:00 +16°C° 0 mm 7 mps 753 mmHg 59%
    13:00 +17°C° 0.1 mm 7 mps 753 mmHg 54%
    14:00 +18°C° 0.1 mm 7 mps 753 mmHg 48%
    15:00 +18°C° 0.1 mm 8 mps 752 mmHg 43%
    16:00 +18°C° 0 mm 7 mps 753 mmHg 45%
    17:00 +17°C° 0 mm 6 mps 753 mmHg 47%
    18:00 +16°C° 0 mm 5 mps 753 mmHg 49%
    19:00 +15°C° 0 mm 4 mps 753 mmHg 51%
    20:00 +14°C° 0 mm 4 mps 754 mmHg 52%
    21:00 +13°C° 0 mm 4 mps 754 mmHg 53%
    22:00 +13°C° 0 mm 4 mps 754 mmHg 53%
    23:00 +12°C° 0 mm 4 mps 755 mmHg 54%

    Tomorrow, 23 April, Monday

    Time Temperature Precipitation Wind Pressure Humidity
    00:00 +11°C° 0 mm 4 mps 755 mmHg 55%
    01:00 +11°C° 0 mm 4 mps 755 mmHg 57%
    02:00 +10°C° 0 mm 4 mps 755 mmHg 59%
    03:00 +8°C° 0 mm 4 mps 755 mmHg 62%
    04:00 +8°C° 0 mm 4 mps 756 mmHg 65%
    05:00 +8°C° 0 mm 4 mps 756 mmHg 69%
    06:00 +7°C° 0 mm 4 mps 756 mmHg 72%
    07:00 +9°C° 0 mm 5 mps 756 mmHg 66%
    08:00 +10°C° 0 mm 5 mps 757 mmHg 59%
    09:00 +13°C° 0 mm 6 mps 757 mmHg 52%
    10:00 +13°C° 0.1 mm 6 mps 757 mmHg 49%
    11:00 +14°C° 0.1 mm 7 mps 757 mmHg 47%
    12:00 +15°C° 0.1 mm 7 mps 757 mmHg 44%
    13:00 +15°C° 0.1 mm 7 mps 757 mmHg 45%
    14:00 +15°C° 0.1 mm 6 mps 757 mmHg 46%
    15:00 +14°C° 0.1 mm 6 mps 757 mmHg 47%
    16:00 +14°C° 0.2 mm 6 mps 757 mmHg 49%
    17:00 +13°C° 0.2 mm 5 mps 757 mmHg 52%
    18:00 +13°C° 0.2 mm 5 mps 758 mmHg 54%
    19:00 +11°C° 0 mm 4 mps 758 mmHg 57%
    20:00 +10°C° 0 mm 4 mps 759 mmHg 60%
    21:00 +8°C° 0 mm 3 mps 760 mmHg 63%
    22:00 +8°C° 0 mm 3 mps 760 mmHg 63%
    23:00 +7°C° 0 mm 2 mps 761 mmHg 63%

    Day after tomorrow, 24 April, Tuesday

    Time Temperature Precipitation Wind Pressure Humidity
    00:00 +6°C° 0 mm 2 mps 761 mmHg 63%
    01:00 +6°C° 0 mm 2 mps 761 mmHg 64%
    02:00 +6°C° 0 mm 1 mps 762 mmHg 65%
    03:00 +5°C° 0 mm 1 mps 762 mmHg 66%
    04:00 +5°C° 0 mm 1 mps 762 mmHg 66%
    05:00 +5°C° 0 mm 1 mps 762 mmHg 67%
    06:00 +5°C° 0 mm 1 mps 762 mmHg 67%
    07:00 +7°C° 0 mm 1 mps 762 mmHg 60%
    08:00 +9°C° 0 mm 1 mps 763 mmHg 53%
    09:00 +11°C° 0 mm 1 mps 763 mmHg 46%
    10:00 +12°C° 0 mm 1 mps 763 mmHg 44%
    11:00 +13°C° 0 mm 2 mps 763 mmHg 41%
    12:00 +13°C° 0 mm 3 mps 763 mmHg 39%
    13:00 +14°C° 0 mm 3 mps 762 mmHg 38%
    14:00 +14°C° 0 mm 3 mps 762 mmHg 38%
    15:00 +16°C° 0 mm 3 mps 762 mmHg 38%
    16:00 +15°C° 0 mm 2 mps 762 mmHg 42%
    17:00 +15°C° 0 mm 2 mps 762 mmHg 46%
    18:00 +15°C° 0 mm 1 mps 761 mmHg 50%
    19:00 +14°C° 0 mm 1 mps 761 mmHg 52%
    20:00 +13°C° 0 mm 1 mps 762 mmHg 54%
    21:00 +12°C° 0 mm 1 mps 762 mmHg 56%
    22:00 +11°C° 0.3 mm 1 mps 762 mmHg 62%
    23:00 +11°C° 0.3 mm 1 mps 762 mmHg 68%

    25 April, Wednesday

    Time Temperature Precipitation Wind Pressure Humidity
    00:00 +10°C° 0.3 mm 2 mps 762 mmHg 73%
    01:00 +9°C° 0.7 mm 2 mps 761 mmHg 78%
    02:00 +9°C° 0.7 mm 2 mps 761 mmHg 83%
    03:00 +9°C° 0.7 mm 3 mps 761 mmHg 88%
    04:00 +9°C° 0.6 mm 3 mps 761 mmHg 89%
    05:00 +8°C° 0.6 mm 4 mps 761 mmHg 90%
    06:00 +8°C° 0.6 mm 5 mps 760 mmHg 91%
    07:00 +8°C° 0.4 mm 5 mps 760 mmHg 90%
    08:00 +9°C° 0.4 mm 5 mps 761 mmHg 90%
    09:00 +9°C° 0.4 mm 5 mps 761 mmHg 89%
    10:00 +10°C° 0.1 mm 5 mps 761 mmHg 89%
    11:00 +10°C° 0.1 mm 5 mps 761 mmHg 88%
    12:00 +12°C° 0.1 mm 5 mps 760 mmHg 87%
    13:00 +13°C° 0.1 mm 4 mps 760 mmHg 85%
    14:00 +14°C° 0.1 mm 4 mps 760 mmHg 84%
    15:00 +14°C° 0.1 mm 4 mps 760 mmHg 82%
    16:00 +15°C° 0.1 mm 4 mps 760 mmHg 80%
    17:00 +16°C° 0.1 mm 3 mps 760 mmHg 79%
    18:00 +16°C° 0.1 mm 3 mps 760 mmHg 77%
    19:00 +14°C° 0.1 mm 3 mps 761 mmHg 82%
    20:00 +13°C° 0.1 mm 3 mps 761 mmHg 86%
    21:00 +13°C° 0.1 mm 2 mps 761 mmHg 90%
    22:00 +12°C° 0 mm 2 mps 761 mmHg 91%
    23:00 +12°C° 0 mm 2 mps 762 mmHg 91%

    26 April, Thursday

    Time Temperature Precipitation Wind Pressure Humidity
    00:00 +10°C° 0 mm 2 mps 762 mmHg 92%
    01:00 +10°C° 0 mm 2 mps 762 mmHg 92%
    02:00 +10°C° 0 mm 2 mps 762 mmHg 92%
    03:00 +10°C° 0 mm 2 mps 762 mmHg 92%
    04:00 +10°C° 0 mm 2 mps 762 mmHg 92%
    05:00 +10°C° 0 mm 2 mps 762 mmHg 91%
    06:00 +10°C° 0 mm 2 mps 762 mmHg 91%
    07:00 +12°C° 0 mm 3 mps 762 mmHg 84%
    08:00 +14°C° 0 mm 3 mps 762 mmHg 77%
    09:00 +17°C° 0 mm 4 mps 762 mmHg 70%
    10:00 +19°C° 0 mm 4 mps 762 mmHg 64%
    11:00 +20°C° 0 mm 5 mps 762 mmHg 58%
    12:00 +22°C° 0 mm 6 mps 762 mmHg 52%
    13:00 +22°C° 0 mm 6 mps 761 mmHg 51%
    14:00 +22°C° 0 mm 6 mps 761 mmHg 51%
    15:00 +23°C° 0 mm 7 mps 760 mmHg 50%
    16:00 +22°C° 0 mm 6 mps 760 mmHg 53%
    17:00 +21°C° 0 mm 6 mps 760 mmHg 56%
    18:00 +20°C° 0 mm 5 mps 760 mmHg 59%
    19:00 +19°C° 0 mm 5 mps 761 mmHg 62%
    20:00 +16°C° 0 mm 5 mps 761 mmHg 64%
    21:00 +15°C° 0 mm 5 mps 761 mmHg 67%
    22:00 +14°C° 0 mm 4 mps 761 mmHg 68%
    23:00 +14°C° 0 mm 4 mps 761 mmHg 69%

    27 April, Friday

    Time Temperature Precipitation Wind Pressure Humidity
    00:00 +14°C° 0 mm 4 mps 762 mmHg 70%
    01:00 +13°C° 0 mm 3 mps 762 mmHg 73%
    02:00 +13°C° 0 mm 3 mps 762 mmHg 75%
    03:00 +14°C° 0 mm 2 mps 762 mmHg 78%
    04:00 +13°C° 0 mm 2 mps 762 mmHg 80%
    05:00 +13°C° 0 mm 2 mps 763 mmHg 83%
    06:00 +13°C° 0 mm 2 mps 763 mmHg 85%
    07:00 +15°C° 0 mm 2 mps 763 mmHg 78%
    08:00 +17°C° 0 mm 3 mps 764 mmHg 71%
    09:00 +19°C° 0 mm 3 mps 764 mmHg 63%
    10:00 +20°C° 0 mm 3 mps 764 mmHg 59%
    11:00 +22°C° 0 mm 3 mps 764 mmHg 55%
    12:00 +24°C° 0 mm 3 mps 764 mmHg 50%
    13:00 +25°C° 0 mm 3 mps 764 mmHg 48%
    14:00 +25°C° 0 mm 4 mps 763 mmHg 46%
    15:00 +26°C° 0 mm 4 mps 763 mmHg 44%
    16:00 +25°C° 0 mm 4 mps 762 mmHg 48%
    17:00 +23°C° 0 mm 4 mps 762 mmHg 51%
    18:00 +22°C° 0 mm 4 mps 762 mmHg 54%
    19:00 +21°C° 0 mm 4 mps 762 mmHg 54%
    20:00 +19°C° 0 mm 5 mps 762 mmHg 54%
    21:00 +16°C° 0 mm 5 mps 763 mmHg 54%
    22:00 +16°C° 0 mm 5 mps 762 mmHg 54%
    23:00 +16°C° 0 mm 5 mps 762 mmHg 55%
    Show more